Вернуться в каталог

CZ-6A DEB

АктивенPO
NORAD 60834·DEBRIS·🇨🇳 China

Запущен Aug 6, 2024 с Taiyuan Satellite Launch Center

Loading…

Ближайшие Пролёты (ближайшие 24 часа)

TLE

СвежийSource: Space-Track

Эпоха: Sep 14, 2026, 07:13 UTC

1 60834U 24140HM  26257.30121816  .00000031  00000-0  10747-4 0  9993
2 60834  89.0098 268.3164 0109843 315.4037  43.8345 14.04922720107001

Отслеживайте CZ-6A DEB в реальном времени с AllMySat

Download on the App Store